| time (UTC) | temp F | wind direction | speed knots | gust knots | rain 1hr in | rain 24hr in | rain mn in | humidity % | barometer mb |
| 20260503195709 | 69 | 45 | 11.3 | 13.9 | 0.00 | 0.00 | 0.00 | 49 | 1020.6 |
| 20260503193807 | 71 | 45 | 13.0 | 18.2 | 0.00 | 0.00 | 0.00 | 49 | 1020.7 |
| 20260503192810 | 70 | 42 | 9.6 | 15.6 | 0.00 | 0.00 | 0.00 | 49 | 1020.9 |
| 20260503191808 | 71 | 46 | 10.4 | 13.9 | 0.00 | 0.00 | 0.00 | 47 | 1021.0 |
| 20260503190810 | 70 | 45 | 7.0 | 11.3 | 0.00 | 0.00 | 0.00 | 50 | 1021.4 |
| 20260503185908 | 70 | 45 | 9.6 | 13.9 | 0.00 | 0.00 | 0.00 | 50 | 1021.4 |
| 20260503183909 | 71 | 49 | 7.8 | 15.6 | 0.00 | 0.00 | 0.00 | 51 | 1021.4 |
| 20260503183008 | 71 | 43 | 7.0 | 13.0 | 0.00 | 0.00 | 0.00 | 50 | 1021.7 |
| 20260503182009 | 70 | 50 | 5.2 | 7.8 | 0.00 | 0.00 | 0.00 | 52 | 1022.0 |
| 20260503181108 | 70 | 72 | 4.3 | 9.6 | 0.00 | 0.00 | 0.00 | 53 | 1021.9 |
| 20260503180109 | 69 | 46 | 7.8 | 13.0 | 0.00 | 0.00 | 0.00 | 53 | 1022.2 |
| 20260503175109 | 68 | 41 | 8.7 | 13.9 | 0.00 | 0.00 | 0.00 | 55 | 1022.2 |
| 20260503174207 | 68 | 45 | 7.8 | 11.3 | 0.00 | 0.00 | 0.00 | 55 | 1022.3 |
| 20260503173208 | 67 | 45 | 8.7 | 13.9 | 0.00 | 0.00 | 0.00 | 58 | 1022.4 |
| 20260503172207 | 66 | 48 | 7.8 | 13.0 | 0.00 | 0.00 | 0.00 | 57 | 1022.5 |
| 20260503171208 | 66 | 45 | 11.3 | 16.5 | 0.00 | 0.00 | 0.00 | 57 | 1022.4 |
| 20260503170208 | 65 | 49 | 8.7 | 12.2 | 0.00 | 0.00 | 0.00 | 58 | 1022.8 |
| 20260503160210 | 60 | 37 | 5.2 | 8.7 | 0.00 | 0.00 | 0.00 | 69 | 1023.4 |
| 20260503150409 | 59 | 45 | 8.7 | 12.2 | 0.00 | 0.00 | 0.00 | 72 | 1023.5 |
| 20260503130808 | 52 | 45 | 0.0 | 1.7 | 0.00 | 0.00 | 0.00 | 92 | 1023.4 |
| 20260503080107 | 56 | 180 | 0.0 | 0.0 | 0.00 | 0.00 | 0.00 | 92 | 1023.8 |
| 20260503072307 | 57 | 180 | 0.0 | 0.0 | 0.00 | 0.00 | 0.00 | 91 | 1023.9 |
| 20260503070308 | 57 | 225 | 0.0 | 0.0 | 0.00 | 0.00 | 0.00 | 90 | 1023.7 |
| 20260503060118 | 59 | 112 | 0.0 | 0.0 | 0.00 | 0.00 | 0.00 | 86 | 1023.7 |
| 20260503055119 | 59 | 118 | 0.0 | 3.5 | 0.00 | 0.00 | 0.00 | 86 | 1023.8 |
| 20260503054117 | 59 | 270 | 0.0 | 0.0 | 0.00 | 0.00 | 0.00 | 86 | 1024.0 |
| 20260503053117 | 59 | 270 | 0.0 | 0.0 | 0.00 | 0.00 | 0.00 | 86 | 1023.9 |
| 20260503052117 | 59 | 270 | 0.0 | 0.0 | 0.00 | 0.00 | 0.00 | 84 | 1024.0 |
| 20260503050118 | 60 | 45 | 0.0 | 0.9 | 0.00 | 0.00 | 0.00 | 83 | 1024.0 |
| 20260503044219 | 61 | 32 | 3.5 | 5.2 | 0.00 | 0.00 | 0.00 | 80 | 1024.0 |
| 20260503043316 | 62 | 45 | 0.0 | 0.0 | 0.00 | 0.00 | 0.00 | 80 | 1023.7 |
| 20260503042319 | 62 | 45 | 0.9 | 1.7 | 0.00 | 0.00 | 0.00 | 78 | 1023.9 |
| 20260503041318 | 63 | 12 | 0.9 | 1.7 | 0.00 | 0.00 | 0.00 | 76 | 1023.8 |
| 20260503040416 | 64 | 225 | 0.0 | 0.0 | 0.00 | 0.00 | 0.00 | 74 | 1023.6 |
| 20260503035419 | 65 | 225 | 0.0 | 0.0 | 0.00 | 0.00 | 0.00 | 72 | 1023.5 |
| 20260503034419 | 66 | 270 | 0.0 | 0.9 | 0.00 | 0.00 | 0.00 | 70 | 1023.3 |
| 20260503033418 | 66 | 247 | 2.6 | 4.3 | 0.00 | 0.00 | 0.00 | 70 | 1023.0 |
| 20260503032420 | 66 | 225 | 2.6 | 3.5 | 0.00 | 0.00 | 0.00 | 68 | 1022.7 |
| 20260503031517 | 67 | 248 | 3.5 | 3.5 | 0.00 | 0.00 | 0.00 | 69 | 1022.4 |
| 20260503025518 | 66 | 232 | 3.5 | 4.3 | 0.00 | 0.00 | 0.00 | 68 | 1022.4 |
| 20260503023518 | 67 | 225 | 3.5 | 4.3 | 0.00 | 0.00 | 0.00 | 68 | 1022.0 |
| 20260503022519 | 67 | 225 | 4.3 | 5.2 | 0.00 | 0.00 | 0.00 | 67 | 1021.9 |
| 20260503021418 | 67 | 225 | 3.5 | 4.3 | 0.00 | 0.00 | 0.00 | 66 | 1021.7 |
| 20260503020416 | 68 | 225 | 5.2 | 6.1 | 0.00 | 0.00 | 0.00 | 64 | 1021.7 |
| 20260503020317 | 68 | 225 | 4.3 | 6.1 | 0.00 | 0.00 | 0.00 | 65 | 1021.7 |
| 20260503015318 | 68 | 224 | 3.5 | 6.1 | 0.00 | 0.00 | 0.00 | 64 | 1021.6 |
| 20260503014318 | 68 | 220 | 5.2 | 8.7 | 0.00 | 0.00 | 0.00 | 64 | 1021.5 |
| 20260503012317 | 69 | 205 | 3.5 | 7.8 | 0.00 | 0.00 | 0.00 | 62 | 1021.4 |
| 20260503011317 | 69 | 228 | 3.5 | 6.1 | 0.00 | 0.00 | 0.00 | 63 | 1021.5 |
| 20260503010317 | 69 | 216 | 7.0 | 12.2 | 0.00 | 0.00 | 0.00 | 63 | 1021.6 |
| 20260503005318 | 69 | 215 | 7.0 | 10.4 | 0.00 | 0.00 | 0.00 | 62 | 1021.4 |
| 20260503005217 | 69 | 208 | 9.6 | 13.9 | 0.00 | 0.00 | 0.00 | 63 | 1021.5 |
| 20260503002218 | 68 | 225 | 7.0 | 9.6 | 0.00 | 0.00 | 0.00 | 63 | 1021.4 |
| 20260503001217 | 68 | 216 | 4.3 | 7.8 | 0.00 | 0.00 | 0.00 | 63 | 1021.4 |
| 20260503000318 | 68 | 225 | 6.1 | 7.8 | 0.00 | 0.00 | 0.00 | 61 | 1021.4 |
| 20260502235320 | 69 | 229 | 6.1 | 7.8 | 0.00 | 0.00 | 0.00 | 59 | 1021.4 |
| 20260502234319 | 70 | 225 | 7.0 | 7.8 | 0.00 | 0.00 | 0.00 | 58 | 1021.4 |
| 20260502233417 | 70 | 216 | 3.5 | 7.0 | 0.00 | 0.00 | 0.00 | 57 | 1021.5 |
| 20260502232417 | 70 | 225 | 4.3 | 5.2 | 0.00 | 0.00 | 0.00 | 58 | 1021.6 |
| 20260502230418 | 68 | 232 | 3.5 | 4.3 | 0.00 | 0.00 | 0.00 | 60 | 1022.2 |
| 20260502225517 | 68 | 205 | 3.5 | 6.1 | 0.00 | 0.00 | 0.00 | 61 | 1022.2 |
| 20260502223518 | 66 | 243 | 4.3 | 5.2 | 0.00 | 0.00 | 0.00 | 65 | 1022.6 |
| 20260502222617 | 65 | 227 | 3.5 | 4.3 | 0.00 | 0.00 | 0.00 | 66 | 1022.8 |
| 20260502220618 | 64 | 246 | 6.1 | 7.0 | 0.00 | 0.00 | 0.00 | 68 | 1023.3 |
| 20260502220517 | 64 | 242 | 5.2 | 6.1 | 0.00 | 0.00 | 0.00 | 67 | 1023.3 |
| 20260502215616 | 64 | 225 | 5.2 | 7.8 | 0.00 | 0.00 | 0.00 | 68 | 1023.5 |
| 20260502214618 | 63 | 215 | 6.1 | 9.6 | 0.00 | 0.00 | 0.00 | 69 | 1023.7 |
| 20260502213618 | 62 | 210 | 6.1 | 11.3 | 0.00 | 0.00 | 0.00 | 70 | 1023.8 |
| 20260502213519 | 62 | 224 | 7.8 | 11.3 | 0.00 | 0.00 | 0.00 | 69 | 1023.9 |
| 20260502211617 | 62 | 228 | 4.3 | 7.8 | 0.00 | 0.00 | 0.00 | 69 | 1024.1 |
| 20260502210618 | 63 | 224 | 9.6 | 12.2 | 0.00 | 0.00 | 0.00 | 69 | 1024.2 |
| 20260502205619 | 63 | 209 | 7.8 | 10.4 | 0.00 | 0.00 | 0.00 | 68 | 1024.1 |
| 20260502203716 | 62 | 242 | 4.3 | 7.8 | 0.00 | 0.00 | 0.00 | 69 | 1024.3 |
| 20260502202720 | 62 | 228 | 5.2 | 7.0 | 0.00 | 0.00 | 0.00 | 71 | 1024.4 |
| 20260502201719 | 62 | 225 | 4.3 | 7.0 | 0.00 | 0.00 | 0.00 | 71 | 1024.5 |
| 20260502200718 | 61 | 215 | 7.8 | 12.2 | 0.00 | 0.00 | 0.00 | 73 | 1024.4 |
| 20260502200619 | 61 | 210 | 9.6 | 13.0 | 0.00 | 0.00 | 0.00 | 72 | 1024.5 |